Tracking 29040 objects as of 15-Jun-2024
HD Live streaming from Space Station
objects crossing your sky now

STARLINK-5049

Track STARLINK-5049 now!
10-day predictions
STARLINK-5049 is classified as:


NORAD ID: 57246
Int'l Code: 2023-094AE
Perigee: 565.3 km
Apogee: 567.1 km
Inclination: 43.0 °
Period: 95.8 minutes
Semi major axis: 6937 km
RCS: Unknown
Launch date: July 7, 2023
Source: United States (US)
Launch site: AIR FORCE WESTERN TEST RANGE (AFWTR)
Your satellite tracking list
Your tracking list is empty




NASA's NSSDC Master Catalog

Two Line Element Set (TLE):
1 57246U 23094AE  24166.84728355  .00000696  00000-0  66588-4 0  9991
2 57246  43.0017 216.0486 0001264 276.0855  83.9843 15.02537413 52074
Source of the keplerian elements: AFSPC